Regional Weather Roundup
Issued by NWS

Home | Current Version | Previous Version | Text Only | Print | Product List | Glossary Off
Versions: 1 2 3 4 5 6 7 8 9 10 11 12 13 14 15 16 17 18 19 20 21 22 23 24 25 26 27 28 29 30 31 32 33 34 35 36 37 38 39 40 41 42 43 44 45 46 47 48 49 50

000
ASUS43 KOAX 271510
RWRNE

WEATHER ROUNDUP FOR NEBRASKA
NATIONAL WEATHER SERVICE OMAHA NE
1000 AM CDT TUE SEP 27 2016

NOTES: SATELLITE DATA IS BEING USED TO AUGMENT CLOUD COVER ABOVE
       12000 FEET.
       "FAIR" INDICATES FEW OR NO CLOUDS BELOW 12,000 FEET WITH NO
       SIGNIFICANT WEATHER AND/OR OBSTRUCTIONS TO VISIBILITY.

  * THESE STATIONS DO NOT REPORT WEATHER SUCH AS RAIN...SNOW OR FOG.

NEZ001>004-019>022-054>056-271600-
NEBRASKA PANHANDLE

CITY           SKY/WX    TMP DP  RH WIND       PRES   REMARKS
SCOTTSBLUFF    SUNNY     52  44  74 NW10      30.18S
ALLIANCE       SUNNY     54  44  69 W9        30.15S
CHADRON        SUNNY     55  46  71 SW7       30.13R
KIMBALL        SUNNY     61  44  53 W8        30.22S
SIDNEY         SUNNY     59  42  53 W9        30.19F
$$

NEZ057>060-069>072-079>082-271600-
SOUTHWEST NEBRASKA

CITY           SKY/WX    TMP DP  RH WIND       PRES   REMARKS
NORTH PLATTE   SUNNY     55  46  71 NW5       30.14S
IMPERIAL       SUNNY     59  43  55 NW3       30.16S
LEXINGTON      SUNNY     58  45  62 NW5       30.12S
MCCOOK         SUNNY     56  43  61 W9        30.14S HAZE
OGALLALA       SUNNY     55  45  69 W5        30.16S
$$

NEZ005>010-023>029-035>040-094-271600-
NORTH CENTRAL NEBRASKA

CITY           SKY/WX    TMP DP  RH WIND       PRES   REMARKS
VALENTINE      SUNNY     59  40  49 W9        30.09F
AINSWORTH      SUNNY     61  45  56 W5        30.09S
BROKEN BOW     SUNNY     64  43  46 VRB3      30.10S
O`NEILL        SUNNY     60  43  53 W6        30.07S
ORD            SUNNY     57  44  62 N5        30.08F
THEDFORD       SUNNY     59  47  63 CALM      30.12F
$$

NEZ041-046>049-061>064-073>077-083>087-271600-
SOUTH CENTRAL NEBRASKA

CITY           SKY/WX    TMP DP  RH WIND       PRES   REMARKS
GRAND ISLAND   SUNNY     61  45  55 NW7       30.09R
AURORA         SUNNY     60  46  58 NW7       30.08R
HASTINGS       SUNNY     64  44  48 N8        30.10R
HEBRON         SUNNY     61  49  65 NW5       30.07S
HOLDREGE       SUNNY     62  43  49 NW5       30.10S
KEARNEY *      SUNNY     61  43  51 NW6       30.09F
YORK           SUNNY     59  46  63 N5        30.07S
$$

NEZ011>018-030>034-042>045-271600-
NORTHEAST NEBRASKA

CITY           SKY/WX    TMP DP  RH WIND       PRES   REMARKS
NORFOLK        SUNNY     58  45  62 NW7       30.05S
ALBION         SUNNY     56  47  71 NW3       30.07F
BLAIR          SUNNY     61  46  59 NW3       30.03S
FREMONT        SUNNY     59  49  69 W3        30.04S
TEKAMAH        SUNNY     62  47  57 N3        30.03S
WAYNE          SUNNY     60  47  62 CALM      30.05S
$$

NEZ050>053-065>068-078-088>093-271600-
SOUTHEAST NEBRASKA

CITY           SKY/WX    TMP DP  RH WIND       PRES   REMARKS
LINCOLN        SUNNY     62  48  60 CALM      30.06S
OMAHA EPPLEY   MOSUNNY   62  47  57 N3        30.03F
BEATRICE       SUNNY     60  51  72 W5        30.05S
FALLS CITY     SUNNY     62  49  62 NW7       30.03S
NEBRASKA CITY  SUNNY     63  34  34 N6        30.04R
PLATTSMOUTH    SUNNY     62  44  51 CALM      30.04S
$$

NEZ044-045-051>053-067-271600-
OMAHA AREA

CITY           SKY/WX    TMP DP  RH WIND       PRES   REMARKS
OMAHA EPPLEY   MOSUNNY   62  47  57 N3        30.03F
BLAIR          SUNNY     61  46  59 NW3       30.03S
FREMONT        SUNNY     59  49  69 W3        30.04S
MILLARD        SUNNY     61  48  62 W3        30.03S
OFFUTT AFB     SUNNY     61  51  70 CALM      30.02F
PLATTSMOUTH    SUNNY     62  44  51 CALM      30.04S
WAHOO          FAIR      62  46  55 CALM      30.04S
$$




USA.gov is the U.S. government's official web portal to all federal, state and local government web resources and services.